Location: El Bakhil
(32.7726°N, 5.5387°W)
Time: 05:13:52
(UTC+00:00)

ARGOS - Pass Details

Date: 03 March 2021
Orbit: 819 x 835 km, 98.4° (Epoch: 12 April)

Event Time Altitude Azimuth Distance (km) Brightness Sun altitude
Rises 19:26:13 0° 165° (SSE) 3,360 6.2 -14.5°
Reaches altitude 10° 19:28:33 10° 165° (SSE) 2,431 5.4 -15.0°
Maximum altitude 19:33:57 87° 78° (ENE) 840 3.1 -16.1°
Drops below altitude 10° 19:39:24 10° 348° (NNW) 2,451 5.8 -17.3°
Sets 19:41:46 0° 348° (NNW) 3,388 6.5 -17.7°
